Time,TemperatureF,DewpointF,PressureIn,WindDirection,WindDirectionDegrees,WindSpeedMPH,WindSpeedGustMPH,Humidity,HourlyPrecipIn,Conditions,Clouds,dailyrainin,SoftwareType,DateUTC
2013-06-25 00:01:00,76.2,68.2,30.01,SSW,211,10.0,14.0,76,0.00,,,0.00,WUHU216DAVISVP2,2013-06-25 04:01:00,
2013-06-25 00:02:00,76.2,68.2,30.01,South,178,4.0,14.0,76,0.00,,,0.00,WUHU216DAVISVP2,2013-06-25 04:02:00,
2013-06-25 00:07:00,76.3,68.3,30.01,NNE,26,2.0,14.0,76,0.00,,,0.00,WUHU216DAVISVP2,2013-06-25 04:07:00,
2013-06-25 00:12:00,76.3,68.3,30.00,SSE,154,2.0,12.0,76,0.00,,,0.00,WUHU216DAVISVP2,2013-06-25 04:12:00,
2013-06-25 00:17:00,76.2,68.2,30.01,SSW,210,2.0,12.0,76,0.00,,,0.00,WUHU216DAVISVP2,2013-06-25 04:17:00,
2013-06-25 00:22:00,76.2,68.2,30.01,SSW,211,2.0,10.0,76,0.00,,,0.00,WUHU216DAVISVP2,2013-06-25 04:22:00,
2013-06-25 00:27:00,76.0,68.0,30.01,South,169,2.0,10.0,76,0.00,,,0.00,WUHU216DAVISVP2,2013-06-25 04:27:00,
2013-06-25 00:32:00,76.0,68.0,30.00,SSW,205,0.0,8.0,76,0.00,,,0.00,WUHU216DAVISVP2,2013-06-25 04:32:00,
2013-06-25 00:37:00,75.9,67.9,30.01,SSW,192,0.0,8.0,76,0.00,,,0.00,WUHU216DAVISVP2,2013-06-25 04:37:00,
2013-06-25 00:42:00,75.8,68.2,30.00,SW,221,0.0,8.0,77,0.00,,,0.00,WUHU216DAVISVP2,2013-06-25 04:42:00,
2013-06-25 00:47:00,75.7,68.1,30.01,South,173,0.0,8.0,77,0.00,,,0.00,WUHU216DAVISVP2,2013-06-25 04:47:00,
2013-06-25 00:52:00,75.6,68.0,30.00,SSW,207,2.0,8.0,77,0.00,,,0.00,WUHU216DAVISVP2,2013-06-25 04:52:00,
2013-06-25 00:58:00,75.5,67.9,30.00,SW,224,0.0,10.0,77,0.00,,,0.00,WUHU216DAVISVP2,2013-06-25 04:58:00,
2013-06-25 01:04:00,75.4,68.1,30.00,North,0,0.0,10.0,78,0.00,,,0.00,WUHU216DAVISVP2,2013-06-25 05:04:00,
2013-06-25 01:09:00,75.1,67.9,30.00,South,180,0.0,8.0,78,0.00,,,0.00,WUHU216DAVISVP2,2013-06-25 05:09:00,
2013-06-25 01:14:00,75.0,67.8,30.00,SW,228,0.0,8.0,78,0.00,,,0.00,WUHU216DAVISVP2,2013-06-25 05:14:00,
2013-06-25 01:19:00,75.0,67.8,30.00,SW,221,4.0,16.0,78,0.00,,,0.00,WUHU216DAVISVP2,2013-06-25 05:19:00,
2013-06-25 01:24:00,75.0,67.8,29.99,SSW,208,4.0,18.0,78,0.00,,,0.00,WUHU216DAVISVP2,2013-06-25 05:24:00,
2013-06-25 01:29:00,75.1,67.9,29.99,South,169,0.0,18.0,78,0.00,,,0.00,WUHU216DAVISVP2,2013-06-25 05:29:00,
2013-06-25 01:34:00,75.0,67.8,29.98,SSW,199,4.0,10.0,78,0.00,,,0.00,WUHU216DAVISVP2,2013-06-25 05:34:00,
2013-06-25 01:39:00,75.0,67.8,29.98,WSW,250,6.0,10.0,78,0.00,,,0.00,WUHU216DAVISVP2,2013-06-25 05:39:00,
2013-06-25 01:45:00,74.9,67.7,29.98,South,175,4.0,10.0,78,0.00,,,0.00,WUHU216DAVISVP2,2013-06-25 05:45:00,
2013-06-25 01:50:00,74.8,67.6,29.98,SE,135,2.0,8.0,78,0.00,,,0.00,WUHU216DAVISVP2,2013-06-25 05:50:00,
2013-06-25 01:55:00,74.8,67.6,29.97,SW,228,2.0,10.0,78,0.00,,,0.00,WUHU216DAVISVP2,2013-06-25 05:55:00,
2013-06-25 02:00:00,74.8,67.6,29.97,SSE,152,8.0,10.0,78,0.00,,,0.00,WUHU216DAVISVP2,2013-06-25 06:00:00,
2013-06-25 02:05:00,74.7,67.5,29.96,South,174,2.0,10.0,78,0.00,,,0.00,WUHU216DAVISVP2,2013-06-25 06:05:00,
2013-06-25 02:10:00,74.6,67.4,29.96,South,178,4.0,10.0,78,0.00,,,0.00,WUHU216DAVISVP2,2013-06-25 06:10:00,
2013-06-25 02:15:00,74.5,67.3,29.96,SSW,196,4.0,8.0,78,0.00,,,0.00,WUHU216DAVISVP2,2013-06-25 06:15:00,
2013-06-25 02:20:00,74.4,67.6,29.95,South,180,0.0,14.0,79,0.00,,,0.00,WUHU216DAVISVP2,2013-06-25 06:20:00,
2013-06-25 02:25:00,74.2,67.4,29.95,SSW,207,6.0,14.0,79,0.00,,,0.00,WUHU216DAVISVP2,2013-06-25 06:25:00,
2013-06-25 02:30:00,74.1,67.3,29.94,SSE,164,8.0,14.0,79,0.00,,,0.00,WUHU216DAVISVP2,2013-06-25 06:30:00,
2013-06-25 02:35:00,74.0,67.5,29.93,South,187,0.0,18.0,80,0.00,,,0.00,WUHU216DAVISVP2,2013-06-25 06:35:00,
2013-06-25 02:40:00,73.9,67.4,29.92,SW,222,2.0,22.0,80,0.00,,,0.00,WUHU216DAVISVP2,2013-06-25 06:40:00,
2013-06-25 02:45:00,73.8,67.3,29.93,South,170,10.0,22.0,80,0.00,,,0.00,WUHU216DAVISVP2,2013-06-25 06:45:00,
2013-06-25 02:50:00,73.8,67.3,29.93,SW,232,8.0,12.0,80,0.00,,,0.00,WUHU216DAVISVP2,2013-06-25 06:50:00,
2013-06-25 02:55:00,73.7,67.2,29.94,South,182,0.0,12.0,80,0.00,,,0.00,WUHU216DAVISVP2,2013-06-25 06:55:00,
2013-06-25 03:00:00,73.6,67.1,29.94,SSW,207,6.0,16.0,80,0.00,,,0.00,WUHU216DAVISVP2,2013-06-25 07:00:00,
2013-06-25 03:05:00,73.6,67.5,29.95,SSW,205,0.0,16.0,81,0.00,,,0.00,WUHU216DAVISVP2,2013-06-25 07:05:00,
2013-06-25 03:10:00,73.5,67.4,29.95,SSE,167,8.0,14.0,81,0.00,,,0.00,WUHU216DAVISVP2,2013-06-25 07:10:00,
2013-06-25 03:15:00,73.5,67.4,29.95,South,182,2.0,14.0,81,0.00,,,0.00,WUHU216DAVISVP2,2013-06-25 07:15:00,
2013-06-25 03:20:00,73.5,67.4,29.95,SE,132,4.0,10.0,81,0.00,,,0.00,WUHU216DAVISVP2,2013-06-25 07:20:00,
2013-06-25 03:25:00,73.5,67.4,29.95,NW,306,0.0,8.0,81,0.00,,,0.00,WUHU216DAVISVP2,2013-06-25 07:25:00,
2013-06-25 03:31:00,73.5,67.4,29.94,SSW,208,0.0,8.0,81,0.00,,,0.00,WUHU216DAVISVP2,2013-06-25 07:31:00,
2013-06-25 03:36:00,73.5,67.0,29.95,SW,219,0.0,8.0,80,0.00,,,0.00,WUHU216DAVISVP2,2013-06-25 07:36:00,
2013-06-25 03:41:00,73.4,67.3,29.95,NNW,329,2.0,10.0,81,0.00,,,0.00,WUHU216DAVISVP2,2013-06-25 07:41:00,
2013-06-25 03:46:00,73.4,66.9,29.95,SW,227,2.0,12.0,80,0.00,,,0.00,WUHU216DAVISVP2,2013-06-25 07:46:00,
2013-06-25 03:51:00,73.4,66.9,29.95,SSE,155,0.0,12.0,80,0.00,,,0.00,WUHU216DAVISVP2,2013-06-25 07:51:00,
2013-06-25 03:56:00,73.3,66.8,29.95,SSE,160,4.0,10.0,80,0.00,,,0.00,WUHU216DAVISVP2,2013-06-25 07:56:00,
2013-06-25 04:01:00,73.3,66.8,29.95,NW,314,0.0,12.0,80,0.00,,,0.00,WUHU216DAVISVP2,2013-06-25 08:01:00,
2013-06-25 04:06:00,73.3,66.8,29.95,WSW,256,0.0,12.0,80,0.00,,,0.00,WUHU216DAVISVP2,2013-06-25 08:06:00,
2013-06-25 04:11:00,73.3,66.8,29.95,West,277,2.0,12.0,80,0.00,,,0.00,WUHU216DAVISVP2,2013-06-25 08:11:00,
2013-06-25 04:16:00,73.2,66.8,29.95,SSW,211,0.0,12.0,80,0.00,,,0.00,WUHU216DAVISVP2,2013-06-25 08:16:00,
2013-06-25 04:21:00,73.1,67.0,29.95,SSW,213,0.0,12.0,81,0.00,,,0.00,WUHU216DAVISVP2,2013-06-25 08:21:00,
2013-06-25 04:26:00,73.0,66.6,29.95,NE,41,2.0,12.0,80,0.00,,,0.00,WUHU216DAVISVP2,2013-06-25 08:26:00,
2013-06-25 04:31:00,73.1,66.3,29.95,West,281,2.0,8.0,79,0.00,,,0.00,WUHU216DAVISVP2,2013-06-25 08:31:00,
2013-06-25 04:36:00,73.2,66.4,29.95,SSW,209,0.0,8.0,79,0.00,,,0.00,WUHU216DAVISVP2,2013-06-25 08:36:00,
2013-06-25 04:41:00,73.3,66.5,29.95,WSW,242,0.0,6.0,79,0.00,,,0.00,WUHU216DAVISVP2,2013-06-25 08:41:00,
2013-06-25 04:46:00,73.3,66.1,29.95,SSW,193,4.0,10.0,78,0.00,,,0.00,WUHU216DAVISVP2,2013-06-25 08:46:00,
2013-06-25 04:51:00,73.3,66.1,29.95,SSW,193,0.0,10.0,78,0.00,,,0.00,WUHU216DAVISVP2,2013-06-25 08:51:00,
2013-06-25 04:56:00,73.3,66.1,29.95,West,261,0.0,6.0,78,0.00,,,0.00,WUHU216DAVISVP2,2013-06-25 08:56:00,
2013-06-25 05:01:00,73.2,66.0,29.95,WNW,290,0.0,8.0,78,0.00,,,0.00,WUHU216DAVISVP2,2013-06-25 09:01:00,
2013-06-25 05:06:00,73.2,66.0,29.96,WSW,249,8.0,8.0,78,0.00,,,0.00,WUHU216DAVISVP2,2013-06-25 09:06:00,
2013-06-25 05:11:00,73.3,65.8,29.96,WNW,296,2.0,12.0,77,0.00,,,0.00,WUHU216DAVISVP2,2013-06-25 09:11:00,
2013-06-25 05:17:00,73.4,66.6,29.96,SSW,207,2.0,12.0,79,0.00,,,0.00,WUHU216DAVISVP2,2013-06-25 09:17:00,
2013-06-25 05:22:00,73.3,66.1,29.96,South,184,0.0,12.0,78,0.00,,,0.00,WUHU216DAVISVP2,2013-06-25 09:22:00,
2013-06-25 05:27:00,73.3,65.8,29.96,WNW,295,4.0,12.0,77,0.00,,,0.00,WUHU216DAVISVP2,2013-06-25 09:27:00,
2013-06-25 05:32:00,73.3,65.0,29.97,NNW,335,2.0,12.0,75,0.00,,,0.00,WUHU216DAVISVP2,2013-06-25 09:32:00,
2013-06-25 05:37:00,73.5,65.2,29.97,North,10,0.0,12.0,75,0.00,,,0.00,WUHU216DAVISVP2,2013-06-25 09:37:00,
2013-06-25 05:42:00,73.5,64.9,29.97,SSW,207,2.0,12.0,74,0.00,,,0.00,WUHU216DAVISVP2,2013-06-25 09:42:00,
2013-06-25 05:47:00,73.6,64.6,29.97,NNE,32,2.0,6.0,73,0.00,,,0.00,WUHU216DAVISVP2,2013-06-25 09:47:00,
2013-06-25 05:52:00,73.7,64.3,29.97,NE,51,0.0,14.0,72,0.00,,,0.00,WUHU216DAVISVP2,2013-06-25 09:52:00,
2013-06-25 05:57:00,73.8,64.8,29.97,WSW,247,4.0,14.0,73,0.00,,,0.00,WUHU216DAVISVP2,2013-06-25 09:57:00,
2013-06-25 06:02:00,73.7,64.7,29.97,WSW,249,0.0,6.0,73,0.00,,,0.00,WUHU216DAVISVP2,2013-06-25 10:02:00,
2013-06-25 06:07:00,73.6,64.2,29.96,WSW,248,0.0,6.0,72,0.00,,,0.00,WUHU216DAVISVP2,2013-06-25 10:07:00,
2013-06-25 06:12:00,73.6,64.6,29.97,West,277,0.0,6.0,73,0.00,,,0.00,WUHU216DAVISVP2,2013-06-25 10:12:00,
2013-06-25 06:17:00,73.6,65.0,29.97,West,265,2.0,6.0,74,0.00,,,0.00,WUHU216DAVISVP2,2013-06-25 10:17:00,
2013-06-25 06:22:00,73.6,64.6,29.97,West,263,0.0,4.0,73,0.00,,,0.00,WUHU216DAVISVP2,2013-06-25 10:22:00,
2013-06-25 06:27:00,73.6,65.0,29.97,West,263,0.0,2.0,74,0.00,,,0.00,WUHU216DAVISVP2,2013-06-25 10:27:00,
2013-06-25 06:32:00,73.6,65.0,29.98,SW,217,0.0,2.0,74,0.00,,,0.00,WUHU216DAVISVP2,2013-06-25 10:32:00,
2013-06-25 06:37:00,73.6,65.3,29.98,SW,217,0.0,2.0,75,0.00,,,0.00,WUHU216DAVISVP2,2013-06-25 10:37:00,
2013-06-25 06:42:00,73.5,65.2,29.98,WNW,283,2.0,8.0,75,0.00,,,0.00,WUHU216DAVISVP2,2013-06-25 10:42:00,
2013-06-25 06:47:00,73.5,66.3,29.98,SSW,192,0.0,8.0,78,0.00,,,0.00,WUHU216DAVISVP2,2013-06-25 10:47:00,
2013-06-25 06:52:00,73.3,65.4,29.98,NE,35,4.0,4.0,76,0.00,,,0.00,WUHU216DAVISVP2,2013-06-25 10:52:00,
2013-06-25 06:58:00,73.5,65.6,29.98,WSW,252,8.0,24.0,76,0.00,,,0.00,WUHU216DAVISVP2,2013-06-25 10:58:00,
2013-06-25 07:03:00,73.6,66.1,29.98,WSW,241,2.0,24.0,77,0.00,,,0.00,WUHU216DAVISVP2,2013-06-25 11:03:00,
2013-06-25 07:08:00,73.7,66.2,29.98,NNW,340,6.0,10.0,77,0.00,,,0.00,WUHU216DAVISVP2,2013-06-25 11:08:00,
2013-06-25 07:13:00,73.7,66.5,29.98,NNW,336,0.0,8.0,78,0.00,,,0.00,WUHU216DAVISVP2,2013-06-25 11:13:00,
2013-06-25 07:18:00,73.7,66.5,29.98,WNW,294,4.0,14.0,78,0.00,,,0.00,WUHU216DAVISVP2,2013-06-25 11:18:00,
2013-06-25 07:23:00,73.7,66.5,29.98,NE,34,0.0,14.0,78,0.00,,,0.00,WUHU216DAVISVP2,2013-06-25 11:23:00,
2013-06-25 07:28:00,73.7,66.5,29.98,West,280,0.0,14.0,78,0.00,,,0.00,WUHU216DAVISVP2,2013-06-25 11:28:00,
2013-06-25 07:33:00,73.6,66.8,29.99,WSW,240,0.0,12.0,79,0.00,,,0.00,WUHU216DAVISVP2,2013-06-25 11:33:00,
2013-06-25 07:38:00,73.6,66.8,29.99,NW,323,2.0,14.0,79,0.00,,,0.00,WUHU216DAVISVP2,2013-06-25 11:38:00,
2013-06-25 07:43:00,73.7,66.9,29.99,NNW,340,2.0,14.0,79,0.00,,,0.00,WUHU216DAVISVP2,2013-06-25 11:43:00,
2013-06-25 07:48:00,73.8,67.0,29.99,West,267,2.0,8.0,79,0.00,,,0.00,WUHU216DAVISVP2,2013-06-25 11:48:00,
2013-06-25 07:53:00,73.7,66.9,29.99,North,355,0.0,6.0,79,0.00,,,0.00,WUHU216DAVISVP2,2013-06-25 11:53:00,
2013-06-25 07:58:00,73.7,66.9,29.99,WNW,295,0.0,14.0,79,0.00,,,0.00,WUHU216DAVISVP2,2013-06-25 11:58:00,
2013-06-25 08:03:00,73.7,66.9,29.99,WSW,240,0.0,14.0,79,0.00,,,0.00,WUHU216DAVISVP2,2013-06-25 12:03:00,
2013-06-25 08:08:00,73.7,66.9,29.99,West,265,0.0,10.0,79,0.00,,,0.00,WUHU216DAVISVP2,2013-06-25 12:08:00,
2013-06-25 08:13:00,73.8,67.3,30.00,WSW,244,0.0,10.0,80,0.00,,,0.00,WUHU216DAVISVP2,2013-06-25 12:13:00,
2013-06-25 08:18:00,73.8,67.3,30.00,North,351,0.0,10.0,80,0.00,,,0.00,WUHU216DAVISVP2,2013-06-25 12:18:00,
2013-06-25 08:23:00,73.8,67.3,30.00,NW,319,4.0,14.0,80,0.00,,,0.00,WUHU216DAVISVP2,2013-06-25 12:23:00,
2013-06-25 08:28:00,73.8,67.7,30.00,SW,220,0.0,14.0,81,0.00,,,0.00,WUHU216DAVISVP2,2013-06-25 12:28:00,
2013-06-25 08:33:00,73.9,67.8,30.00,SSW,205,0.0,8.0,81,0.00,,,0.00,WUHU216DAVISVP2,2013-06-25 12:33:00,
2013-06-25 08:38:00,74.1,68.0,30.00,NNE,12,2.0,10.0,81,0.00,,,0.00,WUHU216DAVISVP2,2013-06-25 12:38:00,
2013-06-25 08:44:00,74.3,67.8,30.00,ENE,78,2.0,14.0,80,0.00,,,0.00,WUHU216DAVISVP2,2013-06-25 12:44:00,
2013-06-25 08:49:00,74.5,68.0,30.00,SSW,199,2.0,14.0,80,0.00,,,0.00,WUHU216DAVISVP2,2013-06-25 12:49:00,
2013-06-25 08:54:00,74.9,68.8,30.00,NE,51,2.0,4.0,81,0.00,,,0.00,WUHU216DAVISVP2,2013-06-25 12:54:00,
2013-06-25 08:59:00,75.2,68.7,30.01,WNW,301,2.0,8.0,80,0.00,,,0.00,WUHU216DAVISVP2,2013-06-25 12:59:00,
2013-06-25 09:04:00,75.1,68.6,30.01,NW,319,0.0,8.0,80,0.00,,,0.00,WUHU216DAVISVP2,2013-06-25 13:04:00,
2013-06-25 09:09:00,75.1,68.6,30.01,WNW,287,4.0,12.0,80,0.00,,,0.00,WUHU216DAVISVP2,2013-06-25 13:09:00,
2013-06-25 09:14:00,75.1,69.0,30.01,South,189,0.0,12.0,81,0.00,,,0.00,WUHU216DAVISVP2,2013-06-25 13:14:00,
2013-06-25 09:19:00,75.1,69.0,30.01,NW,314,4.0,10.0,81,0.00,,,0.00,WUHU216DAVISVP2,2013-06-25 13:19:00,
2013-06-25 09:24:00,75.2,68.7,30.01,WNW,291,6.0,10.0,80,0.00,,,0.00,WUHU216DAVISVP2,2013-06-25 13:24:00,
2013-06-25 09:29:00,75.4,68.9,30.00,WNW,282,0.0,10.0,80,0.00,,,0.00,WUHU216DAVISVP2,2013-06-25 13:29:00,
2013-06-25 09:34:00,75.7,69.5,30.00,NNW,333,2.0,8.0,81,0.00,,,0.00,WUHU216DAVISVP2,2013-06-25 13:34:00,
2013-06-25 09:39:00,76.3,70.1,30.00,North,355,2.0,10.0,81,0.00,,,0.00,WUHU216DAVISVP2,2013-06-25 13:39:00,
2013-06-25 09:44:00,76.9,69.6,30.00,NNW,330,0.0,16.0,78,0.00,,,0.00,WUHU216DAVISVP2,2013-06-25 13:44:00,
2013-06-25 09:49:00,77.1,69.8,30.00,West,259,2.0,16.0,78,0.00,,,0.00,WUHU216DAVISVP2,2013-06-25 13:49:00,
2013-06-25 09:54:00,76.9,69.6,30.00,North,10,4.0,12.0,78,0.00,,,0.00,WUHU216DAVISVP2,2013-06-25 13:54:00,
2013-06-25 09:59:00,76.6,69.7,30.01,ENE,76,2.0,10.0,79,0.00,,,0.00,WUHU216DAVISVP2,2013-06-25 13:59:00,
2013-06-25 10:04:00,76.2,69.3,30.00,NNE,32,2.0,8.0,79,0.00,,,0.00,WUHU216DAVISVP2,2013-06-25 14:04:00,
2013-06-25 10:09:00,76.0,69.1,30.00,NE,55,4.0,6.0,79,0.00,,,0.00,WUHU216DAVISVP2,2013-06-25 14:09:00,
2013-06-25 10:14:00,76.0,69.1,30.00,NNW,338,2.0,10.0,79,0.00,,,0.00,WUHU216DAVISVP2,2013-06-25 14:14:00,
2013-06-25 10:19:00,76.2,69.3,30.00,North,11,6.0,10.0,79,0.00,,,0.00,WUHU216DAVISVP2,2013-06-25 14:19:00,
2013-06-25 10:25:00,76.5,69.6,30.00,NW,312,2.0,12.0,79,0.00,,,0.00,WUHU216DAVISVP2,2013-06-25 14:25:00,
2013-06-25 10:30:00,77.1,69.5,29.99,NW,320,4.0,12.0,77,0.00,,,0.00,WUHU216DAVISVP2,2013-06-25 14:30:00,
2013-06-25 10:35:00,77.5,69.5,29.99,NNE,18,2.0,10.0,76,0.00,,,0.00,WUHU216DAVISVP2,2013-06-25 14:35:00,
2013-06-25 10:40:00,77.8,69.8,30.00,NW,311,8.0,12.0,76,0.00,,,0.00,WUHU216DAVISVP2,2013-06-25 14:40:00,
2013-06-25 10:45:00,78.0,69.2,29.99,SE,145,0.0,12.0,74,0.00,,,0.00,WUHU216DAVISVP2,2013-06-25 14:45:00,
2013-06-25 10:50:00,78.2,69.0,29.99,West,277,6.0,12.0,73,0.00,,,0.00,WUHU216DAVISVP2,2013-06-25 14:50:00,
2013-06-25 10:55:00,78.5,69.3,29.99,NNW,343,6.0,10.0,73,0.00,,,0.00,WUHU216DAVISVP2,2013-06-25 14:55:00,
2013-06-25 11:00:00,78.7,69.1,29.99,West,261,6.0,8.0,72,0.00,,,0.00,WUHU216DAVISVP2,2013-06-25 15:00:00,
2013-06-25 11:05:00,79.1,69.9,29.99,NW,323,2.0,16.0,73,0.00,,,0.00,WUHU216DAVISVP2,2013-06-25 15:05:00,
2013-06-25 11:10:00,79.1,69.5,29.99,North,355,4.0,16.0,72,0.00,,,0.00,WUHU216DAVISVP2,2013-06-25 15:10:00,
2013-06-25 11:15:00,79.3,69.7,29.98,WNW,288,4.0,10.0,72,0.00,,,0.00,WUHU216DAVISVP2,2013-06-25 15:15:00,
2013-06-25 11:20:00,79.6,70.0,29.98,North,355,4.0,22.0,72,0.00,,,0.00,WUHU216DAVISVP2,2013-06-25 15:20:00,
2013-06-25 11:25:00,79.9,69.0,29.98,WNW,295,2.0,22.0,69,0.00,,,0.00,WUHU216DAVISVP2,2013-06-25 15:25:00,
2013-06-25 11:30:00,80.2,69.3,29.98,NNE,15,0.0,18.0,69,0.00,,,0.00,WUHU216DAVISVP2,2013-06-25 15:30:00,
2013-06-25 11:35:00,80.6,70.5,29.98,WSW,239,8.0,12.0,71,0.00,,,0.00,WUHU216DAVISVP2,2013-06-25 15:35:00,
2013-06-25 11:40:00,81.1,70.2,29.97,WNW,285,0.0,12.0,69,0.00,,,0.00,WUHU216DAVISVP2,2013-06-25 15:40:00,
2013-06-25 11:45:00,81.8,70.4,29.97,WSW,244,10.0,16.0,68,0.00,,,0.00,WUHU216DAVISVP2,2013-06-25 15:45:00,
2013-06-25 11:50:00,81.9,69.7,29.97,NNE,24,2.0,18.0,66,0.00,,,0.00,WUHU216DAVISVP2,2013-06-25 15:50:00,
2013-06-25 11:55:00,82.0,70.6,29.97,NNE,28,2.0,18.0,68,0.00,,,0.00,WUHU216DAVISVP2,2013-06-25 15:55:00,
2013-06-25 12:00:00,82.5,71.5,29.96,SE,130,6.0,16.0,69,0.00,,,0.00,WUHU216DAVISVP2,2013-06-25 16:00:00,
2013-06-25 12:05:00,82.9,71.5,29.96,North,360,4.0,20.0,68,0.00,,,0.00,WUHU216DAVISVP2,2013-06-25 16:05:00,
2013-06-25 12:10:00,83.3,71.0,29.96,West,265,12.0,20.0,66,0.00,,,0.00,WUHU216DAVISVP2,2013-06-25 16:10:00,
2013-06-25 12:15:00,83.9,71.1,29.95,WSW,240,2.0,12.0,65,0.00,,,0.00,WUHU216DAVISVP2,2013-06-25 16:15:00,
2013-06-25 12:20:00,84.6,70.9,29.95,SSE,161,4.0,14.0,63,0.00,,,0.00,WUHU216DAVISVP2,2013-06-25 16:20:00,
2013-06-25 12:25:00,84.5,70.8,29.95,WNW,296,2.0,20.0,63,0.00,,,0.00,WUHU216DAVISVP2,2013-06-25 16:25:00,
2013-06-25 12:31:00,84.5,70.3,29.95,WNW,291,0.0,20.0,62,0.00,,,0.00,WUHU216DAVISVP2,2013-06-25 16:31:00,
2013-06-25 12:36:00,84.5,71.3,29.95,SE,132,0.0,14.0,64,0.00,,,0.00,WUHU216DAVISVP2,2013-06-25 16:36:00,
2013-06-25 12:41:00,85.1,70.4,29.94,WNW,292,2.0,14.0,61,0.00,,,0.00,WUHU216DAVISVP2,2013-06-25 16:41:00,
2013-06-25 12:46:00,85.5,71.3,29.94,ENE,57,0.0,12.0,62,0.00,,,0.00,WUHU216DAVISVP2,2013-06-25 16:46:00,
2013-06-25 12:51:00,86.1,69.3,29.94,West,266,12.0,26.0,57,0.00,,,0.00,WUHU216DAVISVP2,2013-06-25 16:51:00,
2013-06-25 12:56:00,86.4,70.1,29.94,SW,219,4.0,26.0,58,0.00,,,0.00,WUHU216DAVISVP2,2013-06-25 16:56:00,
2013-06-25 13:01:00,86.5,66.4,29.94,NE,55,4.0,16.0,51,0.00,,,0.00,WUHU216DAVISVP2,2013-06-25 17:01:00,
2013-06-25 13:06:00,87.0,67.4,29.94,WNW,297,0.0,16.0,52,0.00,,,0.00,WUHU216DAVISVP2,2013-06-25 17:06:00,
2013-06-25 13:11:00,87.4,66.0,29.94,NW,323,2.0,10.0,49,0.00,,,0.00,WUHU216DAVISVP2,2013-06-25 17:11:00,
2013-06-25 13:16:00,87.2,65.9,29.94,WSW,252,0.0,8.0,49,0.00,,,0.00,WUHU216DAVISVP2,2013-06-25 17:16:00,
2013-06-25 13:21:00,87.2,69.3,29.94,WSW,251,0.0,6.0,55,0.00,,,0.00,WUHU216DAVISVP2,2013-06-25 17:21:00,
2013-06-25 13:26:00,87.2,68.8,29.94,North,5,0.0,10.0,54,0.00,,,0.00,WUHU216DAVISVP2,2013-06-25 17:26:00,
2013-06-25 13:31:00,86.8,68.9,29.94,NNW,340,0.0,12.0,55,0.00,,,0.00,WUHU216DAVISVP2,2013-06-25 17:31:00,
2013-06-25 13:36:00,86.5,69.7,29.94,North,5,0.0,12.0,57,0.00,,,0.00,WUHU216DAVISVP2,2013-06-25 17:36:00,
2013-06-25 13:41:00,86.3,69.5,29.93,NE,47,4.0,8.0,57,0.00,,,0.00,WUHU216DAVISVP2,2013-06-25 17:41:00,
2013-06-25 13:46:00,86.5,70.7,29.93,NNE,31,2.0,12.0,59,0.00,,,0.00,WUHU216DAVISVP2,2013-06-25 17:46:00,
2013-06-25 13:51:00,86.3,69.0,29.93,WSW,249,2.0,16.0,56,0.00,,,0.00,WUHU216DAVISVP2,2013-06-25 17:51:00,
2013-06-25 13:56:00,86.2,69.4,29.93,SSE,151,0.0,16.0,57,0.00,,,0.00,WUHU216DAVISVP2,2013-06-25 17:56:00,
2013-06-25 14:01:00,86.3,70.6,29.93,WSW,244,2.0,12.0,59,0.00,,,0.00,WUHU216DAVISVP2,2013-06-25 18:01:00,
2013-06-25 14:06:00,86.0,70.3,29.94,WSW,238,0.0,12.0,59,0.00,,,0.00,WUHU216DAVISVP2,2013-06-25 18:06:00,
2013-06-25 14:11:00,85.6,70.4,29.93,NW,325,2.0,12.0,60,0.00,,,0.00,WUHU216DAVISVP2,2013-06-25 18:11:00,
2013-06-25 14:16:00,85.2,70.0,29.93,WNW,294,6.0,12.0,60,0.00,,,0.00,WUHU216DAVISVP2,2013-06-25 18:16:00,
2013-06-25 14:21:00,85.1,70.4,29.93,West,259,2.0,18.0,61,0.00,,,0.00,WUHU216DAVISVP2,2013-06-25 18:21:00,
2013-06-25 14:26:00,85.2,70.5,29.93,NW,315,4.0,18.0,61,0.00,,,0.00,WUHU216DAVISVP2,2013-06-25 18:26:00,
2013-06-25 14:31:00,85.8,71.1,29.93,NNW,328,4.0,16.0,61,0.00,,,0.00,WUHU216DAVISVP2,2013-06-25 18:31:00,
2013-06-25 14:36:00,85.7,71.0,29.93,NW,315,0.0,16.0,61,0.00,,,0.00,WUHU216DAVISVP2,2013-06-25 18:36:00,
2013-06-25 14:41:00,85.2,70.5,29.93,WSW,249,4.0,14.0,61,0.00,,,0.00,WUHU216DAVISVP2,2013-06-25 18:41:00,
2013-06-25 14:47:00,84.8,70.6,29.93,NNE,19,2.0,14.0,62,0.00,,,0.00,WUHU216DAVISVP2,2013-06-25 18:47:00,
2013-06-25 14:52:00,84.5,70.3,29.93,North,355,4.0,18.0,62,0.00,,,0.00,WUHU216DAVISVP2,2013-06-25 18:52:00,
2013-06-25 14:57:00,84.5,70.3,29.93,NE,39,0.0,18.0,62,0.00,,,0.00,WUHU216DAVISVP2,2013-06-25 18:57:00,
2013-06-25 15:02:00,84.9,72.5,29.92,East,86,2.0,14.0,66,0.00,,,0.00,WUHU216DAVISVP2,2013-06-25 19:02:00,
2013-06-25 15:07:00,84.8,71.5,29.92,NNW,340,0.0,8.0,64,0.00,,,0.00,WUHU216DAVISVP2,2013-06-25 19:07:00,
2013-06-25 15:12:00,84.7,71.9,29.92,NNW,341,2.0,4.0,65,0.00,,,0.00,WUHU216DAVISVP2,2013-06-25 19:12:00,
2013-06-25 15:17:00,84.5,71.7,29.92,North,360,0.0,4.0,65,0.00,,,0.00,WUHU216DAVISVP2,2013-06-25 19:17:00,
2013-06-25 15:22:00,84.6,72.7,29.91,North,360,2.0,4.0,67,0.00,,,0.00,WUHU216DAVISVP2,2013-06-25 19:22:00,
2013-06-25 15:27:00,85.4,72.6,29.90,NNE,21,0.0,6.0,65,0.00,,,0.00,WUHU216DAVISVP2,2013-06-25 19:27:00,
2013-06-25 15:32:00,86.3,72.5,29.90,ENE,63,2.0,6.0,63,0.00,,,0.00,WUHU216DAVISVP2,2013-06-25 19:32:00,
2013-06-25 15:37:00,86.8,73.0,29.90,NNW,337,6.0,6.0,63,0.00,,,0.00,WUHU216DAVISVP2,2013-06-25 19:37:00,
2013-06-25 15:42:00,86.8,73.0,29.90,NE,56,4.0,6.0,63,0.00,,,0.00,WUHU216DAVISVP2,2013-06-25 19:42:00,
2013-06-25 15:47:00,87.0,72.7,29.90,SW,216,0.0,6.0,62,0.00,,,0.00,WUHU216DAVISVP2,2013-06-25 19:47:00,
2013-06-25 15:52:00,86.3,72.0,29.91,WNW,284,0.0,8.0,62,0.00,,,0.00,WUHU216DAVISVP2,2013-06-25 19:52:00,
2013-06-25 15:57:00,85.4,72.1,29.91,WNW,284,0.0,8.0,64,0.00,,,0.00,WUHU216DAVISVP2,2013-06-25 19:57:00,
2013-06-25 16:02:00,84.5,72.6,29.92,WNW,297,2.0,8.0,67,0.00,,,0.00,WUHU216DAVISVP2,2013-06-25 20:02:00,
2013-06-25 16:07:00,82.6,70.8,29.92,SSE,164,4.0,20.0,67,0.00,,,0.00,WUHU216DAVISVP2,2013-06-25 20:07:00,
2013-06-25 16:12:00,79.4,69.8,29.89,East,89,2.0,20.0,72,0.09,,,0.09,WUHU216DAVISVP2,2013-06-25 20:12:00,
2013-06-25 16:17:00,76.4,70.2,29.93,NNE,24,4.0,14.0,81,0.09,,,0.09,WUHU216DAVISVP2,2013-06-25 20:17:00,
2013-06-25 16:22:00,73.8,68.0,29.93,South,172,0.0,12.0,82,0.09,,,0.09,WUHU216DAVISVP2,2013-06-25 20:22:00,
2013-06-25 16:27:00,72.5,67.8,29.93,SSW,203,0.0,12.0,85,0.10,,,0.10,WUHU216DAVISVP2,2013-06-25 20:27:00,
2013-06-25 16:32:00,71.7,67.6,29.91,WSW,254,0.0,8.0,87,0.16,,,0.16,WUHU216DAVISVP2,2013-06-25 20:32:00,
2013-06-25 16:37:00,71.2,68.1,29.91,WSW,254,0.0,8.0,90,0.16,,,0.16,WUHU216DAVISVP2,2013-06-25 20:37:00,
2013-06-25 16:42:00,70.9,68.1,29.91,WSW,254,0.0,2.0,91,0.17,,,0.17,WUHU216DAVISVP2,2013-06-25 20:42:00,
2013-06-25 16:48:00,70.6,67.8,29.91,SSW,209,2.0,4.0,91,0.17,,,0.17,WUHU216DAVISVP2,2013-06-25 20:48:00,
2013-06-25 16:53:00,70.4,67.9,29.90,South,183,0.0,8.0,92,0.17,,,0.17,WUHU216DAVISVP2,2013-06-25 20:53:00,
2013-06-25 16:58:00,70.3,68.1,29.89,SE,134,0.0,8.0,93,0.17,,,0.17,WUHU216DAVISVP2,2013-06-25 20:58:00,
2013-06-25 17:03:00,70.3,68.1,29.89,SSW,205,2.0,8.0,93,0.17,,,0.17,WUHU216DAVISVP2,2013-06-25 21:03:00,
2013-06-25 17:08:00,70.3,68.1,29.88,South,189,0.0,10.0,93,0.16,,,0.17,WUHU216DAVISVP2,2013-06-25 21:08:00,
2013-06-25 17:13:00,70.1,67.6,29.86,SSE,164,0.0,10.0,92,0.08,,,0.17,WUHU216DAVISVP2,2013-06-25 21:13:00,
2013-06-25 17:18:00,69.9,67.8,29.87,SSE,164,0.0,6.0,93,0.08,,,0.17,WUHU216DAVISVP2,2013-06-25 21:18:00,
2013-06-25 17:23:00,69.8,67.3,29.87,South,170,2.0,6.0,92,0.08,,,0.17,WUHU216DAVISVP2,2013-06-25 21:23:00,
2013-06-25 17:28:00,69.6,67.1,29.86,SSE,153,0.0,8.0,92,0.06,,,0.17,WUHU216DAVISVP2,2013-06-25 21:28:00,
2013-06-25 17:33:00,69.5,67.0,29.85,SSW,196,0.0,8.0,92,0.01,,,0.17,WUHU216DAVISVP2,2013-06-25 21:33:00,
2013-06-25 17:38:00,69.4,66.9,29.85,SSE,166,0.0,10.0,92,0.02,,,0.18,WUHU216DAVISVP2,2013-06-25 21:38:00,
2013-06-25 17:43:00,69.2,66.7,29.86,South,188,6.0,12.0,92,0.01,,,0.18,WUHU216DAVISVP2,2013-06-25 21:43:00,
2013-06-25 17:48:00,69.2,67.1,29.86,SW,215,0.0,12.0,93,0.01,,,0.18,WUHU216DAVISVP2,2013-06-25 21:48:00,
2013-06-25 17:53:00,69.2,67.1,29.86,SSE,165,2.0,8.0,93,0.01,,,0.18,WUHU216DAVISVP2,2013-06-25 21:53:00,
2013-06-25 17:58:00,69.1,66.6,29.86,WSW,246,2.0,8.0,92,0.01,,,0.18,WUHU216DAVISVP2,2013-06-25 21:58:00,
2013-06-25 18:03:00,69.2,67.1,29.85,SSW,209,0.0,6.0,93,0.01,,,0.18,WUHU216DAVISVP2,2013-06-25 22:03:00,
2013-06-25 18:08:00,69.2,67.1,29.85,SSE,148,4.0,8.0,93,0.01,,,0.18,WUHU216DAVISVP2,2013-06-25 22:08:00,
2013-06-25 18:13:00,69.0,66.9,29.86,SW,223,0.0,8.0,93,0.01,,,0.18,WUHU216DAVISVP2,2013-06-25 22:13:00,
2013-06-25 18:18:00,69.0,66.9,29.86,South,182,0.0,6.0,93,0.01,,,0.18,WUHU216DAVISVP2,2013-06-25 22:18:00,
2013-06-25 18:23:00,68.9,66.5,29.87,South,182,0.0,6.0,92,0.01,,,0.18,WUHU216DAVISVP2,2013-06-25 22:23:00,
2013-06-25 18:28:00,68.9,66.8,29.87,SSW,213,0.0,6.0,93,0.01,,,0.18,WUHU216DAVISVP2,2013-06-25 22:28:00,
2013-06-25 18:33:00,68.8,66.7,29.87,West,278,2.0,6.0,93,0.01,,,0.18,WUHU216DAVISVP2,2013-06-25 22:33:00,
2013-06-25 18:38:00,68.8,66.7,29.87,WSW,245,0.0,4.0,93,0.00,,,0.18,WUHU216DAVISVP2,2013-06-25 22:38:00,
2013-06-25 18:43:00,69.0,67.2,29.88,SSW,196,4.0,4.0,94,0.00,,,0.18,WUHU216DAVISVP2,2013-06-25 22:43:00,
2013-06-25 18:48:00,69.1,67.0,29.88,WSW,251,4.0,6.0,93,0.00,,,0.18,WUHU216DAVISVP2,2013-06-25 22:48:00,
2013-06-25 18:53:00,69.2,66.7,29.88,SSE,166,0.0,14.0,92,0.00,,,0.18,WUHU216DAVISVP2,2013-06-25 22:53:00,
2013-06-25 18:58:00,69.3,67.2,29.88,SSE,167,0.0,14.0,93,0.00,,,0.18,WUHU216DAVISVP2,2013-06-25 22:58:00,
2013-06-25 19:03:00,69.4,67.3,29.88,South,173,0.0,6.0,93,0.00,,,0.18,WUHU216DAVISVP2,2013-06-25 23:03:00,
2013-06-25 19:08:00,69.5,67.0,29.88,South,178,4.0,12.0,92,0.00,,,0.18,WUHU216DAVISVP2,2013-06-25 23:08:00,
2013-06-25 19:14:00,69.4,66.9,29.88,South,187,2.0,16.0,92,0.00,,,0.18,WUHU216DAVISVP2,2013-06-25 23:14:00,
2013-06-25 19:19:00,69.5,67.0,29.88,SW,217,4.0,16.0,92,0.00,,,0.18,WUHU216DAVISVP2,2013-06-25 23:19:00,
2013-06-25 19:24:00,69.4,66.9,29.88,South,180,8.0,16.0,92,0.00,,,0.18,WUHU216DAVISVP2,2013-06-25 23:24:00,
2013-06-25 19:29:00,69.4,66.9,29.88,South,188,8.0,16.0,92,0.00,,,0.18,WUHU216DAVISVP2,2013-06-25 23:29:00,
2013-06-25 19:34:00,69.4,66.9,29.88,SSW,204,4.0,12.0,92,0.00,,,0.18,WUHU216DAVISVP2,2013-06-25 23:34:00,
2013-06-25 19:39:00,69.5,67.0,29.88,SSE,148,2.0,12.0,92,0.00,,,0.18,WUHU216DAVISVP2,2013-06-25 23:39:00,
2013-06-25 19:44:00,69.5,66.7,29.87,ESE,115,2.0,18.0,91,0.00,,,0.18,WUHU216DAVISVP2,2013-06-25 23:44:00,
2013-06-25 19:49:00,69.5,67.0,29.88,South,179,4.0,18.0,92,0.02,,,0.20,WUHU216DAVISVP2,2013-06-25 23:49:00,
2013-06-25 19:54:00,69.4,67.3,29.90,NE,43,4.0,14.0,93,0.09,,,0.27,WUHU216DAVISVP2,2013-06-25 23:54:00,
2013-06-25 19:59:00,69.0,66.9,29.87,South,172,12.0,16.0,93,0.33,,,0.51,WUHU216DAVISVP2,2013-06-25 23:59:00,
2013-06-25 20:04:00,68.7,66.9,29.90,SW,236,2.0,16.0,94,0.37,,,0.55,WUHU216DAVISVP2,2013-06-26 00:04:00,
2013-06-25 20:09:00,68.6,66.8,29.87,SE,135,4.0,16.0,94,0.45,,,0.63,WUHU216DAVISVP2,2013-06-26 00:09:00,
2013-06-25 20:14:00,68.7,67.2,29.90,NNW,327,6.0,16.0,95,0.45,,,0.63,WUHU216DAVISVP2,2013-06-26 00:14:00,
2013-06-25 20:19:00,69.0,67.8,29.91,SSW,194,4.0,26.0,96,0.63,,,0.81,WUHU216DAVISVP2,2013-06-26 00:19:00,
2013-06-25 20:24:00,68.6,66.8,29.93,WNW,298,6.0,26.0,94,0.84,,,1.02,WUHU216DAVISVP2,2013-06-26 00:24:00,
2013-06-25 20:29:00,68.3,66.8,29.93,East,97,16.0,20.0,95,0.93,,,1.11,WUHU216DAVISVP2,2013-06-26 00:29:00,
2013-06-25 20:34:00,68.1,66.6,29.90,NW,311,6.0,20.0,95,1.07,,,1.26,WUHU216DAVISVP2,2013-06-26 00:34:00,
2013-06-25 20:39:00,67.6,65.8,29.90,South,169,0.0,16.0,94,1.12,,,1.30,WUHU216DAVISVP2,2013-06-26 00:39:00,
2013-06-25 20:44:00,67.3,65.5,29.89,South,169,0.0,6.0,94,1.12,,,1.30,WUHU216DAVISVP2,2013-06-26 00:44:00,
2013-06-25 20:50:00,67.2,65.7,29.89,South,175,2.0,8.0,95,1.10,,,1.30,WUHU216DAVISVP2,2013-06-26 00:50:00,
2013-06-25 20:55:00,67.1,65.6,29.88,SSE,167,0.0,8.0,95,0.99,,,1.30,WUHU216DAVISVP2,2013-06-26 00:55:00,
2013-06-25 21:00:00,67.0,65.5,29.88,SSW,200,0.0,6.0,95,0.79,,,1.30,WUHU216DAVISVP2,2013-06-26 01:00:00,
2013-06-25 21:05:00,67.0,65.5,29.89,South,190,0.0,8.0,95,0.75,,,1.30,WUHU216DAVISVP2,2013-06-26 01:05:00,
2013-06-25 21:10:00,67.1,65.9,29.90,South,190,0.0,8.0,96,0.67,,,1.30,WUHU216DAVISVP2,2013-06-26 01:10:00,
2013-06-25 21:15:00,67.1,65.9,29.89,South,183,2.0,6.0,96,0.67,,,1.30,WUHU216DAVISVP2,2013-06-26 01:15:00,
2013-06-25 21:20:00,67.1,65.9,29.91,SSE,163,2.0,6.0,96,0.47,,,1.30,WUHU216DAVISVP2,2013-06-26 01:20:00,
2013-06-25 21:25:00,67.2,66.0,29.91,South,169,0.0,6.0,96,0.27,,,1.30,WUHU216DAVISVP2,2013-06-26 01:25:00,
2013-06-25 21:30:00,67.2,66.0,29.89,SSE,164,2.0,6.0,96,0.18,,,1.30,WUHU216DAVISVP2,2013-06-26 01:30:00,
2013-06-25 21:35:00,67.3,66.1,29.89,West,266,0.0,8.0,96,0.04,,,1.30,WUHU216DAVISVP2,2013-06-26 01:35:00,
2013-06-25 21:40:00,67.4,66.2,29.89,SSW,213,4.0,8.0,96,0.00,,,1.30,WUHU216DAVISVP2,2013-06-26 01:40:00,
2013-06-25 21:45:00,67.5,66.6,29.90,South,188,2.0,10.0,97,0.00,,,1.30,WUHU216DAVISVP2,2013-06-26 01:45:00,
2013-06-25 21:50:00,67.8,66.9,29.91,SSW,208,4.0,20.0,97,0.01,,,1.31,WUHU216DAVISVP2,2013-06-26 01:50:00,
2013-06-25 21:55:00,68.0,67.1,29.91,West,278,2.0,20.0,97,0.01,,,1.31,WUHU216DAVISVP2,2013-06-26 01:55:00,
2013-06-25 22:00:00,67.9,66.7,29.91,South,175,0.0,16.0,96,0.01,,,1.31,WUHU216DAVISVP2,2013-06-26 02:00:00,
2013-06-25 22:05:00,67.8,66.6,29.90,East,98,2.0,10.0,96,0.01,,,1.31,WUHU216DAVISVP2,2013-06-26 02:05:00,
2013-06-25 22:10:00,67.7,66.5,29.90,SSE,163,2.0,8.0,96,0.02,,,1.32,WUHU216DAVISVP2,2013-06-26 02:10:00,
2013-06-25 22:15:00,67.6,66.4,29.90,ESE,111,0.0,6.0,96,0.03,,,1.33,WUHU216DAVISVP2,2013-06-26 02:15:00,
2013-06-25 22:20:00,67.6,66.4,29.90,SE,145,0.0,8.0,96,0.03,,,1.33,WUHU216DAVISVP2,2013-06-26 02:20:00,
2013-06-25 22:25:00,67.6,66.4,29.91,North,360,0.0,8.0,96,0.03,,,1.33,WUHU216DAVISVP2,2013-06-26 02:25:00,
2013-06-25 22:30:00,67.4,65.9,29.90,SW,216,8.0,14.0,95,0.03,,,1.33,WUHU216DAVISVP2,2013-06-26 02:30:00,
2013-06-25 22:35:00,67.2,65.7,29.90,West,279,6.0,14.0,95,0.03,,,1.33,WUHU216DAVISVP2,2013-06-26 02:35:00,
2013-06-25 22:40:00,67.2,65.7,29.91,SSE,161,0.0,8.0,95,0.03,,,1.33,WUHU216DAVISVP2,2013-06-26 02:40:00,
2013-06-25 22:45:00,67.1,65.6,29.91,West,277,2.0,8.0,95,0.03,,,1.33,WUHU216DAVISVP2,2013-06-26 02:45:00,
2013-06-25 22:50:00,67.0,65.8,29.91,NW,309,0.0,4.0,96,0.02,,,1.33,WUHU216DAVISVP2,2013-06-26 02:50:00,
2013-06-25 22:55:00,67.0,65.8,29.92,SSE,157,0.0,4.0,96,0.02,,,1.33,WUHU216DAVISVP2,2013-06-26 02:55:00,
2013-06-25 23:00:00,67.0,65.8,29.93,SSE,157,0.0,2.0,96,0.03,,,1.34,WUHU216DAVISVP2,2013-06-26 03:00:00,
2013-06-25 23:05:00,67.0,65.8,29.93,SSE,157,0.0,2.0,96,0.04,,,1.35,WUHU216DAVISVP2,2013-06-26 03:05:00,
2013-06-25 23:10:00,67.0,65.8,29.92,SSE,157,2.0,4.0,96,0.04,,,1.36,WUHU216DAVISVP2,2013-06-26 03:10:00,
2013-06-25 23:16:00,67.0,65.8,29.90,SSE,165,0.0,6.0,96,0.04,,,1.37,WUHU216DAVISVP2,2013-06-26 03:16:00,
2013-06-25 23:21:00,67.0,65.8,29.90,ESE,123,0.0,6.0,96,0.04,,,1.37,WUHU216DAVISVP2,2013-06-26 03:21:00,
2013-06-25 23:26:00,67.0,66.1,29.90,ESE,123,2.0,4.0,97,0.04,,,1.37,WUHU216DAVISVP2,2013-06-26 03:26:00,
2013-06-25 23:31:00,67.0,66.1,29.91,SW,234,8.0,8.0,97,0.04,,,1.37,WUHU216DAVISVP2,2013-06-26 03:31:00,
2013-06-25 23:36:00,67.0,66.1,29.91,WNW,286,0.0,8.0,97,0.04,,,1.37,WUHU216DAVISVP2,2013-06-26 03:36:00,
2013-06-25 23:41:00,67.1,66.2,29.92,SSW,206,2.0,10.0,97,0.05,,,1.38,WUHU216DAVISVP2,2013-06-26 03:41:00,
2013-06-25 23:46:00,67.0,66.1,29.93,SW,215,2.0,10.0,97,0.07,,,1.40,WUHU216DAVISVP2,2013-06-26 03:46:00,
2013-06-25 23:51:00,67.0,66.1,29.92,SSW,213,0.0,2.0,97,0.07,,,1.40,WUHU216DAVISVP2,2013-06-26 03:51:00,
2013-06-25 23:56:00,67.0,66.1,29.93,North,350,0.0,4.0,97,0.07,,,1.40,WUHU216DAVISVP2,2013-06-26 03:56:00,